Location: Unspecified
(43.8044°N, 11.0278°E)
Time: 03:33:43
(UTC+01:00)

Okean 3 - Visible Passes

Search period start: 23 February 2017 00:00
Search period end: 05 March 2017 00:00
Orbit: 579 x 602 km, 82.5° (Epoch: 22 February)

Date Brightness Start Highest point End Pass type
(mag) Time Alt. Az. Time Alt. Az. Time Alt. Az.
23 Feb 5.5 06:16:01 10° SSE 06:19:53 34° E 06:23:47 10° NNE visible
24 Feb 4.6 06:23:59 10° S 06:28:08 51° E 06:32:19 10° NNE visible
25 Feb 3.8 06:32:09 10° S 06:36:26 78° E 06:40:45 10° N visible
26 Feb 7.3 05:07:23 10° E 05:08:09 10° E 05:08:56 10° ENE visible
26 Feb 6.3 18:21:49 10° NW 18:25:17 24° W 18:28:43 10° SW visible
27 Feb 6.8 05:13:44 10° ESE 05:16:17 16° E 05:18:51 10° NE visible
27 Feb 6.7 18:30:44 10° NW 18:33:27 17° W 18:36:10 10° SW visible
28 Feb 6.2 05:21:05 10° SE 05:24:27 23° E 05:27:50 10° NE visible
28 Feb 7.2 18:40:18 10° WNW 18:41:35 11° W 18:42:52 10° W visible
01 Mar 5.4 05:28:48 10° SSE 05:32:40 33° E 05:36:33 10° NNE visible
02 Mar 4.5 05:36:45 10° SSE 05:40:54 49° E 05:45:05 10° NNE visible
03 Mar 3.7 05:44:54 10° S 05:49:11 76° E 05:53:31 10° NNE visible
04 Mar 7.0 04:20:27 10° E 04:20:55 10° E 04:21:23 10° ENE visible
04 Mar 3.4 05:53:13 10° SSW 05:57:30 72° W 06:01:50 10° N visible
